EW7682 Levittown NY US current weather conditions

sailwx.info

Wind from 236 at 1 knots gusting 6

Air temperature 3.9° C
Dewpoint -2.5° C

Last reported at 2020-Jan-28 23:00 UTC.
Time now 2020-Jan-28 23:23 UTC

Location: N 40°45' W 073°32'.
View on Google Maps.

See reports from other nearby stations

  
Tides and Currents Weather Stations Pressure Air Temp Water Temp Dewpoint Dewpoint Depression Visibility Wind Speed Wind Dir Waves Ship Positions
date/time (UTC)wind fromknots sea level pressurealtimeterstation pressurevisibilityair tempwater tempwave heightnotes
2020-Jan-28 23:00 236 1 gusting 6 3.9
2020-Jan-28 22:45 311 0 gusting 6 3.9
2020-Jan-28 22:30 338 3.9
2020-Jan-28 22:17 309 0 gusting 9 3.9
2020-Jan-28 22:02 288 3 gusting 6 4.4
2020-Jan-28 21:46 316 2 gusting 10 4.4
2020-Jan-28 21:33 296 5 gusting 9 4.4
2020-Jan-28 21:18 230 4.4
2020-Jan-28 21:02 329 0 gusting 7 4.4
2020-Jan-28 20:47 306 1 gusting 6 4.4
2020-Jan-28 20:32 330 2 gusting 9 4.4
2020-Jan-28 20:16 298 3 gusting 9 4.4
2020-Jan-28 20:02 031 0 gusting 8 4.4
2020-Jan-28 19:46 311 3 gusting 9 4.4
2020-Jan-28 19:32 280 0 gusting 9 5.0
2020-Jan-28 19:17 316 1 gusting 11 5.0
2020-Jan-28 19:02 295 2 gusting 8 5.6
2020-Jan-28 18:46 333 2 gusting 7 5.6
2020-Jan-28 18:33 249 3 gusting 10 5.6
2020-Jan-28 18:17 280 2 gusting 8 5.6
2020-Jan-28 18:01 255 2 gusting 7 6.1
2020-Jan-28 17:46 288 2 gusting 6 6.1
2020-Jan-28 17:31 295 1 gusting 8 5.6
2020-Jan-28 17:16 283 1 gusting 6 5.6
2020-Jan-28 17:01 304 3 gusting 7 5.6
2020-Jan-28 16:47 322 4 gusting 10 5.0
2020-Jan-28 16:30 326 2 gusting 9 5.6
2020-Jan-28 16:16 305 5 gusting 11 5.6
2020-Jan-28 16:01 278 4 gusting 10 5.6
2020-Jan-28 15:46 237 1 gusting 8 5.0
2020-Jan-28 15:32 309 1 gusting 7 4.4
2020-Jan-28 15:16 306 3 gusting 8 4.4
2020-Jan-28 15:01 295 2 gusting 6 4.4
2020-Jan-28 14:46 295 2 gusting 8 3.9
2020-Jan-28 14:31 035 2 gusting 9 3.9
2020-Jan-28 14:15 230 2 gusting 8 3.3
2020-Jan-28 14:00 022 3 gusting 9 3.3
2020-Jan-28 13:45 320 3 gusting 7 3.3
2020-Jan-28 13:31 313 1 gusting 5 3.3
2020-Jan-28 13:15 311 1 gusting 5 3.3
2020-Jan-28 13:01 279 1 gusting 6 2.8
2020-Jan-28 12:45 334 3 gusting 6 2.8
2020-Jan-28 12:30 307 3 gusting 8 2.8
2020-Jan-28 12:15 280 2 gusting 8 2.8
2020-Jan-28 12:00 271 2 gusting 5 2.8
2020-Jan-28 11:45 343 1 gusting 7 2.8
2020-Jan-28 11:31 210 0 gusting 5 2.8
2020-Jan-28 11:16 253 2 gusting 7 2.8
2020-Jan-28 11:02 309 1 gusting 7 2.8
2020-Jan-28 10:47 249 1 gusting 6 2.8
2020-Jan-28 10:32 240 1 gusting 7 2.8
2020-Jan-28 10:17 296 3 gusting 6 2.8
2020-Jan-28 10:02 289 3 gusting 6 2.8
2020-Jan-28 09:46 283 0 gusting 6 2.8
2020-Jan-28 09:31 292 3 gusting 6 2.8
2020-Jan-28 09:16 246 1 gusting 7 2.8
2020-Jan-28 09:01 283 2 gusting 6 2.8
2020-Jan-28 08:46 303 1 gusting 6 3.3
2020-Jan-28 08:31 288 0 gusting 7 3.3
2020-Jan-28 08:17 345 2 gusting 7 3.3
2020-Jan-28 08:01 304 1 gusting 5 3.3
2020-Jan-28 07:45 285 4 gusting 7 3.3
2020-Jan-28 07:31 314 1 gusting 6 3.3
2020-Jan-28 07:16 323 1 gusting 5 3.9
2020-Jan-28 07:00 233 0 gusting 7 3.9
2020-Jan-28 06:45 269 0 gusting 6 3.9
2020-Jan-28 06:30 293 2 gusting 6 3.9
2020-Jan-28 06:15 292 2 gusting 6 3.9
2020-Jan-28 06:00 298 3 gusting 6 3.9
2020-Jan-28 05:45 284 1 gusting 7 3.9
2020-Jan-28 05:30 289 1 gusting 5 3.9
2020-Jan-28 05:15 233 0 gusting 5 3.9
2020-Jan-28 05:00 266 0 gusting 5 3.9
2020-Jan-28 04:47 295 2 gusting 7 4.4
2020-Jan-28 04:31 340 2 gusting 7 4.4
2020-Jan-28 04:17 303 2 gusting 6 4.4
2020-Jan-28 04:03 265 2 gusting 7 4.4
2020-Jan-28 03:46 300 1 gusting 6 4.4
2020-Jan-28 03:35 303 1 gusting 5 4.4
2020-Jan-28 03:17 302 0 gusting 6 5.0
2020-Jan-28 03:02 288 0 gusting 5 5.0
2020-Jan-28 02:46 303 1 gusting 4 5.0
2020-Jan-28 02:33 254 1 gusting 5 5.0
2020-Jan-28 02:17 233 0 gusting 6 5.0
2020-Jan-28 02:01 285 0 gusting 4 5.0
2020-Jan-28 01:48 296 0 gusting 6 5.0
2020-Jan-28 01:32 268 1 gusting 6 5.0
2020-Jan-28 01:16 314 1 gusting 5 5.0
2020-Jan-28 01:01 305 1 gusting 5 5.0
2020-Jan-28 00:48 237 5.0
2020-Jan-28 00:31 288 0 gusting 5 5.6
2020-Jan-28 00:16 272 2 gusting 5 5.6
2020-Jan-28 00:01 269 0 gusting 4 5.6
2020-Jan-27 23:46 237 1 gusting 4 5.6
2020-Jan-27 23:31 273 5.6
2020-Jan-27 23:18 264 1 gusting 6 5.6
2020-Jan-27 23:01 292 1 gusting 6 6.1
2020-Jan-27 22:47 294 2 gusting 6 6.1
2020-Jan-27 22:32 291 2 gusting 6 6.1
2020-Jan-27 22:16 290 1 gusting 6 6.1
2020-Jan-27 22:02 250 6.1
2020-Jan-27 21:47 224 2 gusting 6 6.7
2020-Jan-27 21:32 306 2 gusting 6 6.7
2020-Jan-27 21:16 272 0 gusting 6 6.7
2020-Jan-27 21:00 246 0 gusting 7 6.7
2020-Jan-27 20:46 287 2 gusting 10 6.7
2020-Jan-27 20:31 259 1 gusting 6 6.1
2020-Jan-27 20:17 233 2 gusting 9 6.7
2020-Jan-27 20:01 242 4 gusting 11 6.1
2020-Jan-27 19:46 289 1 gusting 9 6.1
2020-Jan-27 19:30 243 2 gusting 8 6.1
2020-Jan-27 19:17 247 3 gusting 7 6.1
2020-Jan-27 19:00 276 2 gusting 7 6.1
2020-Jan-27 18:45 245 3 gusting 9 6.1
2020-Jan-27 18:31 257 2 gusting 6 6.1
2020-Jan-27 18:17 250 2 gusting 6 6.1
2020-Jan-27 18:00 207 2 gusting 11 6.1
2020-Jan-27 17:46 271 3 gusting 8 6.1
2020-Jan-27 17:31 291 4 gusting 12 5.6
2020-Jan-27 17:15 238 4 gusting 9 5.6
2020-Jan-27 17:00 283 5 gusting 10 5.0
2020-Jan-27 16:45 225 4 gusting 9 5.0
2020-Jan-27 16:30 276 3 gusting 11 5.0
2020-Jan-27 16:15 239 3 gusting 11 5.0
2020-Jan-27 16:00 263 4 gusting 12 5.6
2020-Jan-27 15:48 239 3 gusting 7 5.0
2020-Jan-27 15:32 252 0 gusting 11 5.0
2020-Jan-27 15:17 279 3 gusting 7 5.0
2020-Jan-27 15:03 231 2 gusting 7 5.0
2020-Jan-27 14:46 254 1 gusting 7 5.0
2020-Jan-27 14:31 224 4 gusting 11 4.4
2020-Jan-27 14:16 280 2 gusting 9 3.9
2020-Jan-27 14:01 267 2 gusting 8 3.9
2020-Jan-27 13:46 217 0 gusting 8 3.3
2020-Jan-27 13:31 250 0 gusting 4 3.3
2020-Jan-27 13:16 254 0 gusting 4 3.3
2020-Jan-27 13:02 193 1 gusting 6 3.3
2020-Jan-27 12:46 242 1 gusting 5 2.8
2020-Jan-27 12:31 245 2 gusting 7 2.8
2020-Jan-27 12:16 231 3 gusting 7 2.8
2020-Jan-27 12:02 291 1 gusting 4 2.8
2020-Jan-27 11:45 250 1 gusting 6 2.8
2020-Jan-27 11:32 189 1 gusting 4 2.8
2020-Jan-27 11:15 225 2.8
2020-Jan-27 11:00 212 0 gusting 6 2.8
2020-Jan-27 10:45 269 0 gusting 4 2.8
2020-Jan-27 10:30 245 2 gusting 7 2.8
2020-Jan-27 10:15 249 3 gusting 8 2.8
2020-Jan-27 10:00 234 1 gusting 6 2.8
2020-Jan-27 09:45 243 1 gusting 7 2.8
2020-Jan-27 09:30 240 1 gusting 6 2.8
2020-Jan-27 09:15 245 1 gusting 6 2.8
2020-Jan-27 09:01 253 1 gusting 4 2.2
2020-Jan-27 08:45 236 0 gusting 4 2.2
2020-Jan-27 08:30 261 1 gusting 6 2.2
2020-Jan-27 08:15 245 1 gusting 6 2.2
2020-Jan-27 08:00 275 2 gusting 6 2.2
2020-Jan-27 07:48 244 1.7
2020-Jan-27 07:33 236 1.7
2020-Jan-27 07:16 243 1.7
2020-Jan-27 07:01 265 2.2
2020-Jan-27 06:46 229 2.2
2020-Jan-27 06:34 242 2.2
2020-Jan-27 06:16 252 2.2
2020-Jan-27 06:02 248 2.2
2020-Jan-27 05:46 253 2.2
2020-Jan-27 05:31 297 0 gusting 4 2.2
2020-Jan-27 05:16 242 2.8
2020-Jan-27 05:01 228 2.8
2020-Jan-27 04:47 188 0 gusting 6 2.8
2020-Jan-27 04:31 275 0 gusting 5 2.8
2020-Jan-27 04:16 258 1 gusting 4 3.3
2020-Jan-27 04:02 236 2 gusting 5 3.3
2020-Jan-27 03:45 248 3.3
2020-Jan-27 03:30 217 3.3
2020-Jan-27 03:15 239 0 gusting 3 3.3
2020-Jan-27 03:01 265 1 gusting 5 3.9
2020-Jan-27 02:45 262 1 gusting 5 3.9
2020-Jan-27 02:30 237 2 gusting 7 3.9
2020-Jan-27 02:16 236 1 gusting 7 4.4
2020-Jan-27 02:01 269 2 gusting 6 5.0
2020-Jan-27 01:45 230 0 gusting 7 5.6
2020-Jan-27 01:30 259 2 gusting 10 5.6
2020-Jan-27 01:16 234 3 gusting 9 5.6
2020-Jan-27 01:00 273 3 gusting 10 5.6
2020-Jan-27 00:45 238 0 gusting 3 5.6
2020-Jan-27 00:31 245 0 gusting 4 5.6
2020-Jan-27 00:15 256 0 gusting 6 6.1
2020-Jan-27 00:01 245 1 gusting 6 6.1
2020-Jan-26 23:45 238 0 gusting 5 6.1
2020-Jan-26 23:31 290 0 gusting 6 6.1
2020-Jan-26 23:15 238 6.1
2020-Jan-26 23:00 245 6.1